Change the Weather History Date:

Wednesday, March 6, 2013

  Actual Average Record
Temperature  
Mean Temperature 84 °F -  
Max Temperature 98 °F 94 °F - ()
Min Temperature 71 °F 69 °F - ()
Cooling Degree Days 20    
Growing Degree Days 34 (Base 50)    
Moisture  
Dew Point 72 °F    
Average Humidity 59    
Maximum Humidity 100    
Minimum Humidity 32    
Precipitation  
Precipitation 0.00 in 0.06 in - ()
Sea Level Pressure  
Sea Level Pressure 29.86 in    
Wind  
Wind Speed 2 mph ()    
Max Wind Speed 7 mph    
Max Gust Speed -    
Visibility 7.1 miles    
Events      
T = Trace of Precipitation, MM = Missing Value Source: Averaged Metar Reports

Daily Weather History Graph

Daily Weather History Graph

Search for Another Location

Airport or City:

Trip Planner

Search our weather history database for the weather conditions in past years. The results will help you decide how hot, cold, wet, or windy it might be!

Date:

Astronomy

Mar. 06, 2013 Rise Set
Actual Time 5:53 AM COT 5:54 PM COT
Civil Twilight 5:32 AM COT 6:15 PM COT
Nautical Twilight 5:08 AM COT 6:39 PM COT
Astronomical Twilight 4:44 AM COT 7:04 PM COT
Moon 1:12 AM COT (3/6) 1:19 PM COT (3/6)
Length of Visible Light 12h 43m
Length of Day
12h 01m
Waning Crescent, 30% of the Moon is Illuminated
Mar 6
Waning Crescent
Mar 11
New
Mar 19
First Quarter
Mar 27
Full
Apr 2
Last Quarter

Hourly Weather History & Observations

Time (COT) Temp. Heat Index Dew Point Humidity Pressure Visibility Wind Dir Wind Speed Gust Speed Precip Events Conditions
6:00 AM 71.6 °F - 71.6 °F 100% 29.90 in 6.2 mi Calm Calm - N/A   Scattered Clouds
7:00 AM 73 °F - 72 °F 97% 29.76 in 9 mi Calm Calm - -   Haze
7:00 AM 73.4 °F - 71.6 °F 94% 29.94 in 6.2 mi Calm Calm - N/A   Partly Cloudy
8:00 AM 80.6 °F 83.9 °F 69.8 °F 70% 29.97 in 6.2 mi East 3.5 mph - N/A   Partly Cloudy
9:00 AM 87.8 °F 92.6 °F 69.8 °F 55% 29.99 in 6.2 mi ESE 4.6 mph - N/A   Partly Cloudy
10:00 AM 88 °F - 70 °F 45% 29.81 in 10 mi SE 6.7 mph - -   Scattered Clouds
10:00 AM 87.8 °F 92.6 °F 69.8 °F 55% 30.00 in 6.2 mi SE 5.8 mph - N/A   Partly Cloudy
11:00 AM 89.6 °F 94.7 °F 69.8 °F 52% 29.97 in 6.2 mi SE 4.6 mph - N/A   Partly Cloudy
12:00 PM 93.2 °F 98.8 °F 69.8 °F 46% 29.96 in 6.2 mi ESE 6.9 mph - N/A   Scattered Clouds
1:00 PM 94 °F - 68 °F 32% 29.75 in 10 mi East 4.5 mph - -   Partly Cloudy
1:00 PM 93.2 °F 97.7 °F 68.0 °F 44% 29.94 in 6.2 mi East 4.6 mph - N/A   Scattered Clouds
2:00 PM 95.0 °F 99.5 °F 68.0 °F 41% 29.92 in 6.2 mi East 3.5 mph - N/A   Scattered Clouds
3:00 PM 96.8 °F 103.1 °F 69.8 °F 41% 29.84 in 6.2 mi East 3.5 mph - N/A   Scattered Clouds
4:00 PM 97 °F - 72 °F 36% 29.63 in 9 mi NNE 4.5 mph - -   Haze
4:00 PM 96.8 °F 107.3 °F 73.4 °F 47% 29.82 in 6.2 mi NNE 3.5 mph - N/A   Scattered Clouds
5:00 PM 95.0 °F 103.2 °F 71.6 °F 47% 29.82 in 6.2 mi East 3.5 mph - N/A   Scattered Clouds
6:00 PM 91.4 °F 107.2 °F 78.8 °F 66% 29.83 in 6.2 mi Calm Calm - N/A   Scattered Clouds
7:00 PM 88 °F - 78 °F 66% 29.65 in 9 mi Calm Calm - -   Haze
7:00 PM 87.8 °F 102.5 °F 78.8 °F 75% 29.85 in - Calm Calm - N/A   Clear
8:00 PM 86.0 °F 99.3 °F 78.8 °F 79% 29.87 in - Calm Calm - N/A   Clear